Tracking 18794 objects as of 23-September-2017
HD Live streaming from Space Station
objects crossing your sky now

SKCUBE

Track SKCUBE now!
10-day predictions
SKCUBE is classified as:


NORAD ID: 42789
Int'l Code: 2017-036AA
Perigee: 502.8 km
Apogee: 517.3 km
Inclination: 97.4 °
Period: 94.7 minutes
Semi major axis: 6881 km
RCS: Unknown
Launch date: June 23, 2017
Source: Czech Republic (former Czechoslovakia) (CZCH)
Launch site: SIRHARIKOTA (SRI)
Uplink (MHz): 437.100
Downlink (MHz): 437.100/2401.000
Beacon (MHz):
Mode: 9600bps GMSK Digipeater
Call sign: OM9SAT
Status: Active

aabbcc
Your satellite tracking list
Your tracking list is empty





NASA's NSSDC Master Catalog

Two Line Element Set (TLE):
1 42789U 17036AA  17265.72942679 +.00001511 +00000-0 +71253-4 0  9994
2 42789 097.4403 324.4100 0010548 296.9188 063.0969 15.20980202013842
Source of the keplerian elements: AFSPC